CW0454 Weather Reports


time (UTC)temp
C
wind
direction
speed
KPH
gust
KPH
rain 1hr
cm
rain 24hr
cm
rain mn
cm
humidity
%
barometer
mb
20260507075403 12 32 3.2 12.9 0.00 0.41 0.10 85 1009.8
20260507074402 13 190 3.2 12.9 0.00 0.41 0.10 86 1009.6
20260507073402 13 261 3.2 16.1 0.00 0.41 0.10 88 1009.7
20260507072402 13 260 4.8 12.9 0.00 0.41 0.10 88 1009.5
20260507071403 13 273 4.8 17.7 0.00 0.41 0.10 88 1009.3
20260507070403 13 251 3.2 12.9 0.00 0.41 0.10 88 1009.3
20260507065402 13 253 3.2 12.9 0.03 0.41 0.10 89 1009.6
20260507064403 13 282 1.6 9.7 0.03 0.41 0.10 89 1009.3
20260507063424 13 270 3.2 14.5 0.03 0.41 0.10 89 1009.2
20260507062403 13 267 3.2 12.9 0.03 0.41 0.10 89 1009.2
20260507061359 13 255 4.8 14.5 0.00 0.38 0.08 89 1009.6
20260507060358 13 244 1.6 8.0 0.00 0.38 0.08 88 1009.5
20260507055359 13 264 3.2 12.9 0.05 0.36 0.05 87 1009.6
20260507054359 15 278 4.8 14.5 0.05 0.36 0.05 87 1009.6
20260507053359 15 337 1.6 9.7 0.05 0.36 0.05 86 1009.6
20260507052359 16 314 3.2 11.3 0.00 0.30 0.00 82 1009.7
20260507051358 16 298 4.8 14.5 0.00 0.30 0.00 80 1009.8
20260507050359 16 283 3.2 16.1 0.00 0.30 0.00 78 1009.7
20260507045358 17 318 3.2 14.5 0.00 0.30 0.00 77 1009.2
20260507044359 17 260 3.2 19.3 0.00 0.30 0.00 78 1009.3
20260507043358 17 281 6.4 14.5 0.00 0.30 0.00 80 1009.2
20260507042400 17 262 1.6 11.3 0.00 0.30 0.00 81 1009.1
20260507041359 17 236 1.6 8.0 0.00 0.30 0.00 82 1008.8
20260507040359 17 263 3.2 4.8 0.00 0.61 0.30 82 1008.4
20260507035420 17 264 0.0 3.2 0.00 0.30 0.30 82 1008.6
20260507034358 17 263 3.2 11.3 0.00 0.30 0.30 81 1009.0
20260507033359 18 266 3.2 11.3 0.00 0.30 0.30 80 1008.9
20260507032358 18 242 3.2 11.3 0.00 0.30 0.30 80 1008.7
20260507031359 18 264 6.4 16.1 0.00 0.30 0.30 82 1008.5
20260507030359 18 203 1.6 8.0 0.00 0.30 0.30 83 1008.4
20260507025359 18 295 0.0 8.0 0.00 0.30 0.30 83 1008.4
20260507024359 19 240 1.6 12.9 0.00 0.30 0.30 86 1008.3
20260507022442 19 148 0.0 3.2 0.00 0.30 0.30 87 1008.0
20260507021421 19 147 0.0 4.8 0.00 0.30 0.30 87 1008.0
20260507020359 19 145 0.0 1.6 0.00 0.30 0.30 87 1007.7
20260507015359 19 145 0.0 3.2 0.00 0.30 0.30 86 1007.7
20260507014420 19 145 0.0 4.8 0.00 0.30 0.30 86 1008.0
20260507013359 19 146 0.0 4.8 0.00 0.30 0.30 86 1008.1
20260507012359 19 147 1.6 6.4 0.00 0.30 0.30 86 1008.1
20260507011400 19 148 0.0 3.2 0.00 0.30 0.30 86 1008.2
20260507010359 19 148 0.0 3.2 0.00 0.30 0.30 85 1008.1
20260507005359 19 148 0.0 1.6 0.00 0.30 0.30 84 1007.9
20260507004359 20 148 1.6 4.8 0.00 0.30 0.30 84 1007.7
20260507003359 20 148 0.0 3.2 0.00 0.30 0.30 84 1007.8
20260507002400 20 139 3.2 8.0 0.00 0.30 0.30 83 1007.7
20260507001359 20 121 0.0 6.4 0.00 0.30 0.30 83 1007.8
20260507000400 20 118 0.0 6.4 0.00 0.30 0.30 83 1007.6
20260506235400 20 121 0.0 4.8 0.00 0.30 0.30 83 1008.0
20260506234359 20 117 0.0 3.2 0.00 0.30 0.30 82 1007.3
20260506233421 20 117 1.6 9.7 0.00 0.30 0.30 82 1007.5
20260506232359 21 180 1.6 4.8 0.00 0.30 0.30 81 1007.1
20260506231400 21 192 0.0 3.2 0.00 0.30 0.30 81 1007.3
20260506230359 21 165 3.2 11.3 0.00 0.30 0.30 80 1007.2
20260506225400 21 240 1.6 9.7 0.00 0.30 0.30 80 1007.1
20260506224400 21 192 1.6 8.0 0.00 0.30 0.30 80 1007.1
20260506223420 21 136 3.2 8.0 0.00 0.30 0.30 80 1007.2
20260506222400 21 201 3.2 9.7 0.00 0.30 0.30 80 1007.2
20260506221400 21 194 6.4 12.9 0.00 0.30 0.30 79 1007.2
20260506220400 21 210 1.6 9.7 0.00 0.30 0.30 80 1007.2
20260506215400 21 121 3.2 12.9 0.00 0.30 0.30 79 1007.3
20260506214421 21 187 4.8 9.7 0.00 0.30 0.30 79 1007.1
20260506213400 21 194 4.8 11.3 0.00 0.30 0.30 79 1007.1
20260506212400 21 210 1.6 16.1 0.00 0.30 0.30 78 1007.0
20260506211400 21 202 6.4 17.7 0.00 0.30 0.30 78 1007.0
20260506210401 21 129 1.6 14.5 0.00 0.30 0.30 79 1006.8
20260506205400 21 131 6.4 19.3 0.00 0.30 0.30 78 1006.8
20260506204400 21 205 6.4 20.9 0.00 0.30 0.30 78 1006.8
20260506203421 21 238 3.2 12.9 0.00 0.30 0.30 78 1006.7
20260506202400 21 170 4.8 17.7 0.00 0.30 0.30 78 1006.6
20260506201400 22 200 4.8 17.7 0.00 0.30 0.30 77 1006.5
20260506200400 22 132 11.3 17.7 0.00 0.30 0.30 77 1006.6
20260506195401 22 125 4.8 20.9 0.00 0.30 0.30 77 1006.6
20260506194400 22 162 3.2 16.1 0.00 0.30 0.30 77 1006.7
20260506193401 22 197 6.4 12.9 0.00 0.30 0.30 78 1006.6
20260506192400 22 240 1.6 12.9 0.00 0.30 0.30 79 1006.7
20260506191401 21 171 3.2 14.5 0.00 0.30 0.30 80 1006.9
20260506190400 21 216 4.8 12.9 0.00 0.30 0.30 81 1007.0
20260506185401 20 155 6.4 20.9 0.00 0.30 0.30 81 1007.1
20260506184443 20 192 4.8 19.3 0.00 0.30 0.30 81 1007.3
20260506183400 20 174 8.0 22.5 0.00 0.30 0.30 82 1007.4
20260506182401 20 181 4.8 19.3 0.00 0.30 0.30 82 1007.5
20260506181400 20 227 3.2 14.5 0.00 0.30 0.30 84 1007.6
20260506180401 20 58 6.4 22.5 0.00 0.30 0.30 84 1007.7
20260506175422 19 144 9.7 24.1 0.00 0.30 0.30 85 1007.6
20260506174400 19 121 4.8 17.7 0.00 0.30 0.30 86 1007.7
20260506173401 18 150 6.4 24.1 0.00 0.30 0.30 88 1007.8
20260506172400 18 160 4.8 24.1 0.00 0.30 0.30 88 1007.8
20260506171401 18 140 9.7 22.5 0.00 0.30 0.30 89 1007.8
20260506170401 18 116 4.8 20.9 0.00 0.30 0.30 91 1007.9
20260506165401 17 143 9.7 22.5 0.00 0.30 0.30 91 1008.2
20260506164400 17 128 6.4 20.9 0.00 0.30 0.30 92 1008.3
20260506163443 17 123 8.0 22.5 0.00 0.30 0.30 92 1008.2
20260506162401 17 124 4.8 17.7 0.00 0.30 0.30 93 1008.0
20260506161401 17 128 6.4 16.1 0.00 0.30 0.30 93 1008.2
20260506160401 16 127 8.0 22.5 0.00 0.30 0.30 93 1008.5
20260506155401 17 170 3.2 16.1 0.05 0.30 0.30 93 1008.6
20260506154401 16 133 9.7 25.7 0.05 0.30 0.30 92 1008.4
20260506153401 16 103 8.0 20.9 0.03 0.28 0.28 92 1008.3
20260506152401 16 129 9.7 22.5 0.03 0.28 0.28 91 1008.8
20260506151401 16 128 4.8 16.1 0.03 0.28 0.28 91 1009.0
20260506150400 16 120 4.8 17.7 0.03 0.28 0.28 90 1009.3
20260506145422 16 117 3.2 16.1 0.18 0.20 0.20 89 1009.3
20260506144402 17 135 4.8 12.9 0.10 0.13 0.13 88 1009.3
20260506143443 17 142 3.2 16.1 0.08 0.10 0.10 88 1009.2
20260506142401 17 136 4.8 14.5 0.05 0.08 0.08 86 1009.2
20260506141401 17 125 3.2 12.9 0.03 0.05 0.05 85 1009.3
20260506140401 17 80 1.6 16.1 0.00 0.03 0.03 83 1009.4
20260506135401 18 154 3.2 16.1 0.00 0.00 0.00 82 1009.7
20260506134401 18 105 4.8 14.5 0.00 0.00 0.00 79 1009.8
20260506133402 18 142 3.2 20.9 0.00 0.00 0.00 80 1009.6
20260506132401 18 123 6.4 16.1 0.00 0.00 0.00 78 1009.3
20260506131402 18 147 4.8 19.3 0.00 0.00 0.00 78 1009.2
20260506130422 18 128 6.4 17.7 0.00 0.00 0.00 78 1009.0
20260506125422 18 122 4.8 12.9 0.00 0.00 0.00 77 1008.9
20260506124402 18 167 1.6 19.3 0.00 0.00 0.00 77 1009.1
20260506123401 18 130 6.4 16.1 0.00 0.00 0.00 78 1009.2
20260506122402 18 129 4.8 19.3 0.00 0.00 0.00 78 1009.4
20260506121401 18 133 9.7 19.3 0.00 0.00 0.00 77 1009.4
20260506120402 18 140 6.4 19.3 0.00 0.00 0.00 77 1009.4
20260506115422 18 123 8.0 19.3 0.00 0.00 0.00 76 1009.3
20260506114402 18 173 4.8 16.1 0.00 0.00 0.00 77 1009.2
20260506113422 18 144 9.7 32.2 0.00 0.00 0.00 77 1009.0
20260506112423 18 143 6.4 17.7 0.00 0.00 0.00 77 1008.9
20260506111402 18 118 4.8 17.7 0.00 0.00 0.00 78 1008.8
20260506110444 18 135 8.0 16.1 0.00 0.00 0.00 78 1008.7
20260506105403 18 135 6.4 25.7 0.00 0.00 0.00 77 1008.6
20260506104402 18 124 14.5 25.7 0.00 0.00 0.00 77 1008.5
20260506103401 18 136 6.4 22.5 0.00 0.00 0.00 77 1008.5
20260506102402 18 126 9.7 20.9 0.00 0.00 0.00 78 1008.6
20260506101402 18 111 4.8 19.3 0.00 0.00 0.00 77 1008.5
20260506100402 18 149 6.4 19.3 0.00 0.00 0.00 77 1008.5
20260506095402 18 122 3.2 16.1 0.00 0.00 0.00 77 1008.6
20260506094402 18 134 8.0 20.9 0.00 0.00 0.00 77 1008.5
20260506093402 18 139 8.0 20.9 0.00 0.00 0.00 76 1008.6
20260506092401 18 159 3.2 19.3 0.00 0.00 0.00 76 1008.6
20260506091402 18 122 4.8 24.1 0.00 0.00 0.00 75 1008.7
20260506090403 18 128 8.0 17.7 0.00 0.00 0.00 75 1008.8
20260506085402 19 119 9.7 19.3 0.00 0.00 0.00 74 1008.7
20260506084402 19 137 9.7 19.3 0.00 0.00 0.00 74 1008.7
20260506083402 19 118 6.4 25.7 0.00 0.00 0.00 73 1008.6
20260506082403 19 128 9.7 24.1 0.00 0.00 0.00 73 1008.6
20260506081402 19 124 9.7 25.7 0.00 0.00 0.00 73 1008.6
20260506080402 20 157 3.2 19.3 0.00 0.00 0.00 72 1008.6